GFSSW_925_thetae_159.txt.gz
Theta_e
309 309 309 309 309 309 308 308 309 309 310 310 310 311 311 310 310 311 314 315 316 316 314 317 321 322 321 320 319 320 320 324 326 327 329 331 326 325 326 327 330 330 333 351 358
308 308 308 308 308 309 308 309 308 308 308 308 309 310 310 309 310 312 313 313 313 313 314 316 322 322 322 319 320 319 320 322 325 327 329 329 326 326 323 323 327 328 340 350 351
308 308 308 308 308 308 308 308 309 309 310 309 309 308 308 309 313 318 313 314 312 314 313 315 319 322 321 319 319 319 319 321 322 323 326 326 325 325 324 324 324 326 334 348 351
307 307 307 307 307 308 308 308 308 309 309 309 308 308 307 311 318 323 316 316 315 322 323 315 320 322 324 323 320 319 319 320 320 321 322 321 323 323 323 324 325 325 326 325 348
304 304 304 303 304 305 305 307 307 308 309 308 308 308 310 314 316 316 313 317 322 322 321 319 320 322 324 325 326 323 321 320 320 320 321 320 320 321 322 323 323 322 323 323 325
302 302 301 300 301 301 302 303 305 307 308 308 308 308 312 316 313 312 311 312 318 320 321 322 322 322 322 324 326 326 325 322 320 320 319 319 319 319 320 321 321 321 322 322 323
301 300 300 301 303 302 302 302 305 307 307 309 310 310 313 314 312 311 312 312 314 318 321 321 321 321 321 323 324 325 326 324 322 321 320 319 318 319 319 320 320 320 321 321 322
300 300 299 303 305 306 306 306 305 307 308 311 311 312 314 312 311 312 311 312 313 317 318 318 320 322 322 322 323 323 325 326 325 324 321 319 319 319 319 319 319 320 320 321 321
302 299 299 303 305 306 306 305 305 309 310 310 313 314 317 313 311 312 315 315 312 313 316 316 318 322 322 324 324 325 326 325 325 324 323 321 321 320 320 321 321 320 320 321 321
302 300 300 301 305 306 305 306 307 309 311 312 314 316 316 315 316 317 319 319 320 316 315 317 317 320 321 324 325 325 326 325 325 325 324 325 322 321 321 322 321 321 321 321 321
297 297 297 298 304 305 307 312 314 318 315 316 316 316 315 313 314 316 318 319 320 320 317 318 318 318 320 321 322 323 324 325 326 325 326 326 326 324 322 320 321 320 320 321 322
296 296 297 298 305 307 309 312 310 308 311 312 312 312 311 311 313 315 312 318 319 321 319 320 320 318 317 319 321 321 323 325 325 326 326 325 325 325 324 323 323 321 321 321 322
296 296 296 298 308 310 311 309 308 309 313 313 314 313 314 315 316 319 314 318 321 320 321 321 321 320 319 318 318 320 323 324 325 325 325 324 324 324 324 324 324 324 323 322 323
296 296 297 303 310 312 313 309 308 311 316 315 314 317 318 318 320 319 318 320 323 323 321 322 321 321 319 320 318 319 319 322 324 326 325 324 325 324 323 324 324 323 323 323 324
295 296 298 305 311 313 311 310 310 312 319 314 319 318 318 319 319 318 318 319 321 320 321 322 321 322 321 321 320 319 319 321 322 323 324 323 325 325 323 324 324 324 324 324 324
295 297 301 311 312 312 311 311 313 322 320 314 316 318 318 317 317 316 315 319 318 318 318 319 318 319 320 323 320 320 320 321 320 321 323 322 323 323 322 323 324 325 325 324 324
296 299 305 309 313 311 312 313 318 319 315 314 315 315 315 315 314 314 313 317 317 319 321 320 318 318 319 323 323 321 323 327 325 323 324 322 322 322 322 323 323 324 324 325 325
296 303 307 310 310 311 312 315 319 315 315 313 314 315 315 314 314 315 318 318 316 316 321 322 323 321 319 321 323 322 322 325 328 325 322 321 323 322 322 323 323 324 324 325 325
301 307 308 312 310 309 312 316 315 313 312 313 313 312 313 312 313 314 316 316 314 318 322 328 324 319 319 321 323 322 322 322 322 323 327 322 322 322 323 323 323 323 324 325 326
303 308 309 308 307 308 313 314 311 308 307 306 308 309 309 309 312 314 316 314 315 320 320 320 326 321 322 322 323 324 323 324 323 332 333 325 324 323 323 324 323 323 324 333 337
305 309 310 307 304 311 313 307 306 305 304 304 306 307 306 307 308 309 310 311 315 320 319 317 324 324 322 326 326 322 326 326 325 324 325 324 324 326 325 325 324 324 338 342 338
305 309 307 305 310 308 307 306 305 304 304 305 306 306 311 312 311 313 314 314 315 316 321 318 320 325 321 322 323 323 322 329 333 331 325 328 337 333 331 332 333 342 343 342 343
306 309 307 305 308 306 306 305 304 304 305 306 307 307 307 312 315 315 315 315 312 315 317 315 322 324 329 324 325 327 324 323 326 327 329 328 333 332 331 332 335 340 339 340 340
308 307 307 306 306 306 306 306 305 304 305 305 307 308 309 310 309 313 311 314 313 314 314 315 318 322 324 323 324 327 326 326 325 333 334 330 329 335 335 336 336 335 336 341 341
306 306 305 305 305 306 306 306 306 306 305 306 307 308 308 312 311 310 310 310 311 313 314 314 318 318 319 319 319 323 327 326 328 329 330 328 328 333 334 335 334 334 336 339 338
305 304 303 303 305 306 306 307 306 306 305 307 308 308 307 309 310 312 312 312 312 313 313 314 317 315 318 318 321 322 326 325 326 326 326 327 328 324 328 331 333 333 334 335 334
301 301 303 303 304 305 306 306 305 304 306 306 306 307 308 309 310 310 310 311 312 312 313 314 316 320 322 323 324 329 329 326 326 327 327 327 328 333 333 331 331 332 331 331 330

GFSSW_925_thetae_162.txt.gz
Theta_e
309 309 310 309 309 309 309 307 307 309 310 310 310 310 310 310 309 312 313 313 315 316 316 316 317 322 322 323 322 321 321 324 325 326 327 329 329 328 328 328 331 332 335 359 355
308 308 309 309 309 309 309 308 308 308 309 310 310 310 310 309 309 311 313 313 313 313 315 315 318 323 324 323 323 322 322 322 324 326 327 328 328 330 327 326 327 331 344 354 357
308 308 308 308 308 307 308 308 308 309 309 309 310 310 308 309 314 320 316 313 318 313 313 314 316 321 325 324 322 321 321 321 323 324 326 327 328 329 328 325 325 326 334 345 352
305 305 305 306 304 304 305 307 308 309 309 309 309 308 308 311 318 323 316 315 313 315 318 317 315 318 323 325 324 320 319 320 321 322 323 324 325 326 326 326 327 327 329 339 349
301 301 300 300 301 302 301 305 307 308 309 308 308 309 310 314 317 317 317 314 319 323 325 325 320 318 321 323 324 323 321 320 320 321 321 321 321 323 324 325 325 325 327 337 342
299 297 297 297 298 298 300 305 307 307 308 309 308 309 312 314 314 317 314 313 317 319 321 322 321 318 320 322 323 324 325 325 323 321 321 320 320 321 322 324 324 324 324 325 325
297 297 297 297 298 300 304 307 307 307 308 308 309 312 313 314 314 314 313 313 313 314 321 321 322 323 323 322 323 323 324 325 327 326 323 322 320 320 321 322 323 323 324 323 325
296 296 296 297 298 300 305 307 307 307 309 310 311 313 313 313 314 314 313 314 313 315 316 319 321 323 323 323 322 323 324 326 326 326 326 324 322 321 321 321 322 321 323 323 323
297 296 296 297 297 300 306 305 305 307 310 311 313 314 319 316 316 314 312 313 313 313 315 318 320 321 322 324 324 324 326 325 325 325 326 324 324 323 322 321 322 322 322 322 323
296 296 296 296 297 303 307 311 312 308 313 313 315 318 318 318 317 315 317 316 319 318 315 317 317 319 321 323 327 324 324 324 325 326 325 326 327 325 323 322 323 323 321 322 322
295 296 296 296 297 305 309 314 316 316 316 318 317 318 316 317 315 317 318 320 321 321 322 316 319 319 317 319 321 323 323 323 324 325 326 327 326 327 325 323 322 323 324 322 323
296 296 296 297 298 307 310 316 313 311 312 313 313 314 314 314 315 315 314 317 320 322 321 321 318 318 318 317 318 320 321 322 323 323 325 327 327 328 327 325 324 324 324 323 324
296 296 296 298 302 311 314 314 311 311 312 313 314 315 315 315 314 313 313 316 315 320 320 321 320 319 319 319 318 317 319 321 321 321 323 326 329 328 326 327 326 325 325 324 322
296 296 297 300 310 312 315 312 312 312 314 316 316 317 318 318 319 318 319 320 316 317 321 321 320 319 319 320 320 320 318 318 319 322 324 324 329 330 327 326 327 327 324 324 322
295 296 297 302 308 316 314 312 312 315 322 317 320 320 319 320 319 318 319 320 319 319 321 324 323 321 320 322 322 323 320 319 318 320 322 323 326 328 327 326 326 327 327 327 324
295 296 299 307 311 313 312 312 313 321 326 316 316 316 317 317 317 316 318 318 318 319 318 320 320 320 320 320 321 321 323 325 319 320 322 323 325 327 327 327 327 326 327 327 325
295 297 303 307 313 311 310 313 318 321 317 317 314 314 315 315 314 314 314 315 315 316 318 318 319 317 317 316 317 319 324 332 325 323 324 321 323 324 326 325 325 326 327 326 326
296 301 309 309 312 309 309 313 319 317 314 310 309 308 309 309 311 313 316 321 318 319 320 322 324 319 318 319 319 321 322 330 329 326 323 322 323 323 323 323 325 324 326 327 327
299 306 310 311 311 307 310 314 316 311 308 307 306 306 307 306 307 308 311 311 314 317 323 325 321 320 319 320 320 322 324 324 329 321 321 321 323 323 323 323 324 324 325 328 328
302 307 311 311 310 307 314 316 313 308 306 305 305 305 307 307 308 309 308 311 315 316 321 322 324 318 318 319 320 321 323 328 327 327 331 327 328 324 324 325 324 325 325 328 329
304 310 310 309 308 310 312 311 308 306 305 305 305 307 308 308 310 310 310 309 310 316 318 318 321 320 321 325 323 322 326 326 327 325 325 329 330 334 334 327 326 326 326 328 330
303 309 309 308 309 311 309 307 306 306 306 306 307 307 308 310 310 310 312 310 313 316 319 316 320 322 320 319 320 324 324 327 330 329 325 329 332 332 335 332 328 329 333 337 347
306 310 309 308 309 308 307 307 307 306 307 306 307 307 310 310 313 312 312 312 314 315 317 317 320 322 324 322 323 326 323 326 325 326 332 333 333 332 334 340 342 345 344 346 347
308 310 309 308 308 306 307 308 307 308 308 307 307 308 310 310 309 310 310 313 313 312 316 316 317 318 321 322 320 323 322 323 327 331 330 328 331 332 328 336 337 341 342 343 344
309 309 306 307 306 306 307 307 309 308 307 306 307 309 309 310 310 310 311 311 312 315 316 317 316 315 316 317 317 319 319 321 324 328 332 330 328 332 335 336 334 337 341 342 343
305 305 304 306 305 306 307 307 307 307 306 307 308 307 308 310 310 312 311 312 312 312 313 316 318 317 317 317 319 321 320 321 322 326 327 327 326 330 333 333 335 338 340 341 341
302 302 303 304 304 305 306 306 307 306 306 306 307 308 310 311 311 311 311 311 311 313 313 315 316 316 318 317 318 328 323 322 324 327 325 332 331 329 333 333 335 336 336 336 331

GFSSW_925_thetae_165.txt.gz
Theta_e
308 309 308 308 308 308 308 305 304 306 309 309 310 310 310 310 308 309 309 310 313 314 315 316 316 317 319 318 318 317 316 318 318 320 322 321 322 324 325 325 327 332 354 349 347
308 308 308 308 308 308 308 309 309 309 309 309 310 309 308 308 309 311 310 312 312 312 313 315 317 316 317 319 318 318 316 318 318 318 320 321 323 324 324 323 324 352 351 349 348
305 306 305 305 307 306 307 308 308 308 309 309 309 308 309 309 311 315 317 314 314 314 314 313 314 314 314 320 320 319 321 319 318 318 319 321 321 322 323 323 322 334 359 353 349
299 299 299 298 299 299 299 305 308 308 309 309 309 309 309 310 312 322 315 314 315 315 314 314 312 313 315 318 321 321 320 320 319 319 318 318 318 319 319 321 323 323 346 356 355
297 296 296 297 297 297 297 299 307 308 309 308 309 309 308 311 313 316 317 315 315 315 315 317 315 311 313 316 318 321 321 321 318 317 317 317 318 318 317 318 322 323 327 343 349
296 296 296 297 297 297 297 300 306 308 309 308 309 309 309 311 311 315 317 316 316 320 323 322 323 315 314 314 315 318 320 321 321 318 316 317 318 317 318 318 321 321 324 326 333
296 296 296 296 297 297 297 301 307 307 307 308 309 310 311 310 312 315 316 313 313 316 318 320 322 320 317 315 317 318 320 320 321 321 322 319 317 318 318 317 318 319 321 321 322
296 296 296 296 297 297 298 304 306 308 308 309 311 311 312 310 312 314 313 313 313 313 313 314 316 318 320 319 321 321 320 321 320 321 322 322 324 320 319 317 317 318 319 319 319
295 296 296 297 297 298 298 309 311 311 307 311 311 313 316 317 317 315 314 313 314 313 314 314 316 317 319 320 321 321 323 320 321 321 322 323 324 322 320 317 316 317 317 318 318
296 296 296 297 297 299 302 312 314 311 313 313 313 315 316 318 317 316 315 313 313 314 313 313 314 316 317 319 324 323 323 321 322 322 322 322 323 323 320 320 319 316 317 317 317
295 296 296 297 298 300 306 311 312 312 314 317 314 316 316 316 316 318 318 319 319 319 320 313 313 317 315 317 320 321 321 322 321 321 322 322 323 323 321 321 320 317 317 316 316
296 295 296 297 300 304 310 312 313 311 311 311 311 311 312 312 313 313 313 317 319 321 320 320 315 314 317 317 317 318 318 319 319 319 320 321 322 322 323 322 321 319 317 317 317
296 297 296 298 302 312 313 314 312 313 312 312 311 312 312 313 313 313 314 313 313 314 317 320 320 320 317 316 318 317 315 317 318 319 319 319 320 320 323 323 321 320 319 318 318
297 298 298 298 306 306 313 312 312 312 314 314 318 317 317 318 319 319 316 313 311 314 315 314 317 319 319 320 317 318 317 317 317 317 319 318 320 319 323 324 324 321 320 319 319
299 298 297 298 303 309 314 313 311 313 323 317 315 314 311 317 318 318 318 321 321 320 320 321 319 322 323 322 321 322 321 323 324 322 318 317 318 319 323 325 325 322 320 319 319
300 300 297 302 307 309 311 310 310 317 324 316 309 308 307 307 309 311 311 316 318 319 320 318 316 319 319 318 320 322 323 324 324 323 326 317 317 318 320 322 324 324 320 321 319
298 299 300 304 308 312 310 308 314 319 315 312 308 307 306 307 306 307 307 307 317 319 317 317 318 316 318 318 317 318 319 328 329 327 327 319 317 318 320 323 324 323 322 321 320
296 300 304 307 310 311 308 309 314 317 311 307 306 305 306 305 306 308 307 307 308 312 315 318 319 316 316 317 319 319 319 321 327 325 324 321 320 318 319 320 323 323 322 322 321
298 302 306 311 311 311 306 314 314 314 308 306 305 305 306 306 307 308 308 308 308 316 320 322 322 317 318 319 320 323 323 321 324 325 328 326 320 318 319 319 319 319 319 318 320
300 303 307 312 311 309 308 313 314 308 307 306 306 306 308 307 309 309 309 308 309 309 316 318 321 316 318 320 319 322 321 327 320 327 325 323 324 321 327 328 321 319 318 317 321
301 305 310 309 309 309 310 312 308 307 307 308 306 306 307 309 309 309 309 310 312 314 315 318 319 317 317 322 322 321 324 324 323 325 325 321 320 327 330 328 329 330 318 320 335
301 306 309 308 308 309 309 306 307 307 308 308 308 307 309 310 310 310 315 312 312 313 316 316 317 317 318 316 319 321 323 324 323 324 325 324 325 328 329 328 328 335 322 346 345
302 306 310 306 308 306 305 306 306 309 309 308 307 307 310 310 310 310 313 311 312 314 316 316 318 315 316 323 319 319 317 323 324 326 326 325 329 325 330 330 330 340 345 345 345
303 309 307 305 305 306 305 306 308 308 307 307 306 307 309 308 307 309 309 310 311 311 315 315 315 317 317 319 317 319 319 320 322 325 325 325 324 326 325 330 331 333 339 342 344
306 306 304 304 304 305 304 306 306 308 306 306 307 308 307 308 308 310 311 311 311 313 315 315 311 314 315 315 315 315 316 317 320 321 326 327 327 329 329 332 328 331 336 340 345
303 303 301 302 303 304 304 305 307 306 306 307 307 307 309 311 311 313 311 309 311 310 311 315 318 314 315 314 317 318 317 318 319 321 323 326 329 329 330 331 333 335 337 338 343
300 300 301 303 302 302 304 305 305 305 306 306 307 308 312 310 309 308 307 307 308 310 310 311 313 313 312 316 316 320 323 322 321 319 321 330 327 327 330 332 333 333 331 330 330

GFSSW_925_thetae_168.txt.gz
Theta_e
306 306 305 302 300 301 304 306 307 307 307 309 309 310 310 309 308 308 307 306 308 307 313 313 315 315 316 316 315 314 313 313 315 317 316 317 319 321 322 322 322 335 347 348 355
305 306 306 304 301 301 301 302 308 308 309 309 309 309 310 308 308 309 310 307 308 314 317 316 316 316 314 316 317 316 313 314 314 316 315 316 317 318 321 320 321 350 345 350 352
299 299 299 300 301 301 300 301 307 308 310 310 309 309 308 308 307 311 316 314 314 311 312 313 313 313 312 315 317 316 318 316 316 316 316 317 318 318 319 320 321 340 346 348 349
296 297 297 297 297 297 297 299 305 308 309 309 309 309 309 309 307 320 315 314 314 313 317 312 311 312 311 313 315 319 318 318 318 318 317 318 317 318 317 316 317 320 345 347 348
296 297 297 297 297 297 298 298 299 305 309 308 308 308 307 308 310 312 316 315 315 316 316 312 310 310 312 312 313 318 320 319 318 317 318 318 318 318 316 316 316 318 334 346 346
297 297 297 297 298 297 298 299 299 303 307 310 308 308 308 310 309 311 315 316 315 315 314 312 314 310 311 311 312 314 316 318 318 319 318 317 317 315 317 316 316 316 323 342 346
297 296 297 298 298 298 299 300 301 307 308 310 309 309 309 308 309 315 320 317 316 317 321 318 317 321 312 315 312 313 315 315 317 317 317 318 319 317 317 316 315 315 317 324 336
297 298 298 298 300 300 300 301 306 312 311 311 310 310 310 310 312 313 312 315 314 315 317 317 319 319 319 317 319 320 319 320 319 318 318 318 321 321 320 316 317 316 316 318 319
297 298 299 301 304 302 302 306 313 312 309 310 310 310 314 314 316 317 314 313 313 313 313 313 313 314 316 317 318 318 323 321 321 318 318 318 321 321 320 317 317 317 314 316 316
299 298 298 304 306 302 305 312 313 312 313 312 313 312 312 316 317 315 315 314 312 312 311 311 311 313 313 316 323 321 322 320 322 319 319 318 320 320 320 319 317 314 315 316 315
299 298 300 302 305 303 309 312 310 309 314 312 311 313 311 311 312 312 313 313 312 313 317 313 311 313 314 314 317 319 320 321 321 320 319 320 320 320 319 318 319 315 316 313 314
300 298 299 299 304 304 309 311 313 311 311 311 311 311 311 311 311 311 312 311 312 319 319 319 317 313 313 315 316 317 319 320 319 318 317 318 318 318 318 318 320 319 315 318 313
299 300 299 300 303 309 304 311 311 312 310 312 311 311 307 311 311 314 315 313 311 313 319 321 320 319 317 315 316 317 317 317 317 317 316 316 317 317 317 318 319 319 319 317 317
302 299 298 298 304 304 308 312 309 310 314 316 310 308 306 307 312 310 310 318 314 319 317 317 315 317 317 320 319 319 316 317 319 318 316 316 319 317 316 317 321 320 319 318 316
303 296 296 299 302 305 310 310 309 310 316 312 308 307 306 306 306 307 307 307 317 315 318 319 318 319 319 320 321 323 320 322 323 323 322 321 316 315 316 318 318 318 318 317 317
302 298 298 302 303 308 310 309 308 314 318 314 307 305 305 306 306 307 307 307 307 314 312 319 316 317 318 318 319 319 321 322 323 322 326 322 320 319 315 315 317 318 319 319 318
300 301 302 302 306 309 310 305 310 316 315 309 307 305 305 306 306 306 307 306 307 312 308 311 312 313 317 318 317 320 323 327 328 328 330 322 323 320 315 315 317 318 318 318 316
300 302 306 307 310 309 308 306 312 317 313 307 306 305 306 306 306 307 307 307 306 307 312 315 314 314 316 316 316 318 319 326 328 329 322 321 325 320 318 315 316 317 318 319 317
299 303 307 312 312 308 303 307 312 313 310 307 305 306 305 306 306 307 307 307 309 311 313 316 319 314 315 316 319 320 321 320 324 322 325 325 322 319 318 318 316 316 317 318 317
298 301 304 307 311 308 304 308 311 310 308 308 307 306 307 307 308 307 308 309 311 311 311 314 316 316 316 318 318 318 320 320 317 324 326 323 322 320 319 322 321 323 323 322 318
300 300 306 306 306 302 306 307 306 306 309 310 309 308 307 309 308 308 308 309 311 310 313 315 318 316 316 319 319 321 322 320 319 322 322 320 317 321 319 325 326 325 324 327 327
299 301 307 305 302 301 303 304 306 307 308 309 308 307 308 309 309 309 310 309 310 310 316 315 314 318 316 316 319 321 319 321 321 321 324 321 320 324 326 328 327 327 326 331 333
299 298 306 304 302 302 303 304 306 307 307 306 306 306 308 308 309 309 308 309 309 311 313 315 316 315 309 320 317 318 318 318 321 322 321 322 320 323 323 323 324 324 324 335 342
298 304 299 298 300 301 303 303 305 306 306 305 305 306 304 307 307 309 308 309 309 309 312 315 314 314 316 315 316 317 316 318 320 324 324 324 322 322 322 325 324 326 324 324 344
299 300 300 300 300 300 300 303 305 305 304 304 305 306 308 310 309 310 310 309 308 310 311 313 312 313 314 315 315 315 315 314 318 321 326 322 323 326 328 326 323 324 325 323 335
297 297 297 299 300 300 300 301 304 305 303 305 305 306 305 310 311 311 309 308 309 307 309 312 316 312 312 313 315 316 314 314 316 319 320 320 323 326 327 328 327 328 322 329 340
298 299 296 299 299 299 300 301 303 303 304 304 305 306 307 307 307 306 306 306 307 307 307 308 308 312 313 313 314 316 324 324 325 317 318 323 323 329 329 330 330 329 330 329 329

GFSSW_925_thetae_171.txt.gz
Theta_e
306 307 307 305 303 304 304 307 308 309 309 310 310 310 310 310 309 308 306 307 306 308 312 313 314 315 315 315 313 309 311 312 314 315 316 316 318 318 319 320 319 322 344 348 354
305 304 303 302 302 300 301 302 306 308 309 309 310 310 309 309 308 307 308 308 307 310 312 314 315 314 314 315 315 314 310 311 311 315 315 315 316 316 317 317 318 321 345 355 354
298 298 297 297 298 298 298 299 302 307 309 309 309 309 309 308 305 305 315 313 312 309 313 314 313 313 314 314 316 315 315 313 314 313 314 315 317 317 317 316 319 318 339 356 354
298 298 299 299 299 300 300 300 301 305 308 309 309 308 308 308 307 316 315 314 310 313 314 313 310 311 311 312 313 318 316 315 315 315 316 316 316 317 315 316 316 315 320 354 353
300 299 300 302 302 304 306 304 302 304 307 309 309 308 307 307 307 308 315 315 316 316 318 310 309 309 310 309 311 315 316 317 316 315 315 315 317 317 317 317 315 315 317 349 351
301 301 303 304 303 306 305 304 303 304 308 309 309 308 307 309 308 315 317 316 319 317 317 309 310 308 310 310 311 313 314 316 317 316 316 318 318 316 319 318 314 313 313 335 350
301 300 302 303 305 305 304 304 305 310 310 310 309 308 308 308 310 310 314 317 315 316 314 313 312 311 310 313 310 312 313 313 312 314 314 316 316 317 318 317 314 313 313 318 345
301 299 300 303 305 304 304 305 310 312 310 311 310 309 309 310 312 314 315 314 318 315 318 315 313 315 319 318 319 317 317 320 317 315 315 317 320 320 318 318 316 314 312 314 321
304 303 303 304 304 303 304 308 311 310 312 311 310 309 311 312 313 314 315 311 312 316 313 315 314 315 312 316 315 316 319 320 320 318 318 317 318 318 318 317 317 316 313 313 313
303 301 302 301 303 301 304 310 311 312 313 311 312 311 309 310 311 311 311 313 312 311 310 310 308 310 311 314 318 319 320 319 320 318 318 319 319 317 317 318 317 316 318 313 313
302 301 299 300 302 301 308 311 308 308 311 312 310 311 311 311 311 311 311 312 311 311 310 311 309 311 311 313 315 317 318 320 319 318 317 319 319 318 316 316 316 316 315 314 314
304 300 300 299 302 304 304 306 311 310 310 309 309 309 310 310 310 311 308 310 310 311 313 318 313 311 310 312 314 315 316 317 317 318 318 318 318 317 316 316 316 316 315 313 312
302 299 298 300 302 307 303 310 310 309 309 310 311 310 305 308 309 306 306 312 313 315 313 316 318 318 314 313 314 314 315 315 316 316 315 316 316 315 315 315 315 316 316 315 314
302 300 298 300 304 303 306 309 309 309 310 313 308 304 304 305 307 306 306 309 312 316 317 317 315 317 317 319 317 318 315 317 320 320 319 314 317 314 314 314 314 315 314 315 315
301 301 299 302 302 303 308 309 308 309 311 311 306 305 304 304 305 306 306 307 310 308 312 315 317 317 318 317 319 318 320 322 321 323 322 322 319 319 313 314 314 314 315 315 314
302 302 301 304 302 308 309 309 308 313 315 311 307 305 304 306 307 305 306 306 306 306 313 313 313 313 316 317 317 319 319 320 321 322 329 323 320 321 318 314 315 315 315 316 315
302 303 304 303 305 307 309 304 308 314 314 313 308 307 304 305 306 306 306 304 305 306 308 306 309 313 316 315 315 317 320 319 326 328 326 321 322 321 318 315 313 313 313 313 314
303 304 306 305 305 307 307 305 312 314 315 309 308 306 305 306 306 306 306 305 307 309 310 309 310 311 310 312 313 316 319 318 324 327 324 321 326 322 318 317 317 315 312 313 314
302 304 306 305 304 308 302 306 310 309 308 308 308 307 306 307 306 306 306 306 310 309 310 311 313 313 313 315 317 318 320 317 321 322 323 322 320 318 317 317 315 313 314 312 314
300 300 305 304 304 305 303 308 306 306 308 309 310 309 310 307 307 306 307 308 311 310 309 312 312 313 315 314 317 320 318 321 318 321 325 322 321 320 316 315 320 322 321 321 322
300 299 305 304 304 300 302 303 305 306 308 310 310 310 307 307 307 307 308 308 311 311 310 312 312 315 313 316 318 319 320 319 316 317 319 319 317 315 316 324 325 323 323 322 321
297 301 304 302 300 298 301 303 305 305 306 306 306 307 307 307 308 308 309 309 307 310 311 311 314 315 316 316 318 320 320 318 317 318 320 318 318 323 324 325 325 324 323 321 321
300 297 304 300 299 299 301 302 303 305 305 304 305 306 306 306 308 308 308 308 308 310 313 312 316 314 310 317 316 318 317 318 320 322 322 320 318 317 320 321 322 322 321 322 323
298 301 297 295 297 299 300 301 302 304 304 303 304 305 304 307 306 309 308 308 308 308 310 311 314 311 310 310 313 316 317 318 317 317 319 323 320 317 317 318 320 319 318 321 322
295 298 298 298 297 298 299 300 302 304 304 302 305 304 306 307 307 308 309 308 307 308 309 311 316 312 313 314 313 315 315 314 315 315 318 316 321 319 319 323 322 322 321 322 323
294 295 295 296 297 298 298 300 302 303 302 303 304 304 305 308 308 308 310 308 308 307 307 305 313 311 311 312 313 315 315 315 315 315 315 316 317 316 317 325 326 324 322 323 327
297 298 295 298 297 297 297 299 300 301 302 303 303 305 306 307 306 306 306 306 306 306 306 307 305 306 310 312 312 316 318 321 323 323 318 317 318 317 327 328 328 329 321 328 327

GFSSW_925_thetae_174.txt.gz
Theta_e
300 300 300 301 302 301 303 305 307 309 309 310 310 310 311 310 309 308 306 308 308 306 314 314 319 314 314 314 310 306 310 309 311 313 314 315 315 317 316 318 317 319 322 334 351
301 302 303 303 303 303 303 306 307 309 309 310 310 310 310 309 308 306 309 307 307 310 311 312 313 312 313 314 313 310 308 309 309 312 314 314 316 316 317 316 317 317 322 352 350
303 303 304 303 304 305 306 306 306 309 309 310 310 310 309 308 303 304 315 312 306 316 312 313 313 313 314 313 314 314 313 311 312 312 313 314 314 316 316 316 316 317 328 353 349
307 307 306 305 306 306 306 305 304 307 309 309 309 309 309 307 306 310 317 311 315 312 313 311 309 311 311 313 313 317 314 314 313 312 315 314 315 316 315 316 316 315 314 353 352
307 307 306 306 305 305 305 304 304 307 308 309 309 309 307 306 307 310 321 316 316 314 315 309 309 308 310 309 310 313 315 316 315 313 312 313 314 315 316 316 314 314 314 327 352
305 305 304 305 305 303 303 303 303 307 308 310 309 309 306 310 308 313 318 323 317 317 316 308 309 307 309 309 310 311 312 313 314 314 315 316 316 315 318 317 316 315 316 315 333
304 304 304 304 303 302 302 302 306 310 310 311 310 308 307 308 309 311 310 315 317 317 316 312 310 309 308 311 309 310 315 314 313 312 314 315 317 319 318 318 318 313 312 312 312
304 305 304 302 302 302 302 305 309 310 311 311 310 308 309 310 311 311 314 313 315 318 314 315 312 311 315 316 319 317 315 318 316 313 312 314 316 316 316 316 315 314 312 311 311
304 302 301 300 301 301 303 307 311 312 311 311 309 308 310 310 311 311 312 312 312 315 315 314 314 315 316 317 311 313 316 318 318 315 317 314 315 316 317 315 315 315 314 312 311
303 302 300 300 302 302 305 310 311 313 312 311 311 308 307 310 310 310 307 311 311 312 314 311 310 311 310 311 313 315 317 317 319 318 316 317 317 316 315 316 315 314 315 314 312
303 302 301 301 301 303 305 310 306 307 311 309 309 310 310 310 308 306 306 311 310 309 309 307 308 309 309 312 312 313 316 317 317 316 317 318 318 317 315 314 313 313 313 314 313
303 301 301 301 303 306 304 306 308 307 307 307 308 308 309 309 307 305 306 312 310 310 310 314 311 309 309 310 312 313 314 315 314 314 315 316 317 316 316 315 314 314 314 314 315
303 301 301 304 304 305 305 308 307 306 307 307 310 309 304 305 306 304 305 306 312 312 316 314 313 314 313 311 311 312 313 313 314 314 314 315 316 315 314 313 313 312 314 313 314
302 302 301 307 305 305 307 307 308 307 306 309 306 304 304 304 307 306 306 305 309 313 312 310 314 315 315 318 315 315 313 314 316 320 317 314 318 313 312 312 312 312 312 314 313
302 302 304 306 304 305 307 308 308 306 307 308 307 305 303 304 305 305 305 306 309 307 307 308 308 309 314 316 316 317 316 316 318 322 324 322 320 318 312 313 312 311 311 311 313
302 302 305 305 305 306 307 308 306 311 314 313 309 307 306 305 306 306 306 305 305 305 307 306 307 313 314 313 316 316 319 319 320 321 327 321 322 319 317 314 313 312 312 312 312
302 303 305 304 302 305 308 303 305 313 311 312 308 307 307 305 306 306 305 304 306 306 306 307 307 306 310 315 316 314 319 318 317 318 321 319 322 321 317 315 314 315 312 311 311
301 303 304 303 303 307 306 303 311 310 310 307 307 307 307 306 306 306 305 304 307 307 307 310 310 307 309 314 315 315 316 318 312 314 319 320 325 321 318 317 316 315 313 311 310
301 303 304 302 304 307 303 305 308 307 307 308 308 309 307 307 305 304 305 305 308 307 305 309 311 309 310 312 312 315 316 315 317 319 317 319 318 316 315 317 315 314 314 312 310
300 300 303 302 304 304 301 307 304 305 307 308 310 309 309 307 306 306 306 306 309 310 309 311 312 310 311 312 314 316 316 320 317 321 320 317 318 316 315 315 316 316 318 317 319
300 298 303 301 302 299 300 302 303 304 304 308 309 307 308 307 305 305 307 307 308 309 309 310 312 312 312 314 315 318 319 318 316 315 318 318 317 313 314 314 320 321 320 320 320
298 299 302 300 298 296 299 301 303 304 303 304 303 304 307 305 305 305 308 308 307 308 310 310 310 310 316 313 316 317 319 316 317 316 319 319 318 319 319 323 323 321 319 318 318
300 298 301 299 297 297 298 301 302 303 304 304 303 305 305 305 307 307 306 307 307 308 310 309 313 312 313 315 316 317 318 320 318 320 320 320 317 316 319 319 319 320 318 318 318
296 298 295 293 295 298 298 299 301 301 303 303 302 304 305 305 305 308 307 306 308 307 309 310 311 315 312 312 312 314 315 317 314 315 314 318 317 316 316 316 316 317 318 318 319
292 296 296 296 296 296 297 298 301 302 302 301 304 305 304 306 306 306 307 309 308 308 309 310 314 313 312 312 312 313 314 313 314 314 315 313 314 314 315 314 315 320 322 322 322
293 294 294 295 296 296 296 299 300 300 300 301 303 303 302 305 307 309 308 307 308 307 307 305 304 306 309 310 312 313 312 313 313 313 313 314 314 313 313 313 315 319 323 324 324
296 295 296 295 296 297 296 299 298 298 299 300 302 302 303 305 305 304 305 305 307 307 306 307 308 308 310 311 312 316 316 315 317 314 317 319 315 313 314 324 326 324 323 323 328